This is the latest recevied weather packets stored in our database for station/object VE6HFD-WX. If no packets are shown the sender has not sent any weather packets the latest 10 day(s).
| Time | Temp. | Humidity | Pressure | Rain* | Wind** | Luminosity | Snow |
|---|---|---|---|---|---|---|---|
| 1778194056 | 20.56° C | 24% | 1006.5 hPa | 0 mm | - | - | - |
| 1778193726 | 20° C | 26% | 1006.6 hPa | 0 mm | - | - | - |
| 1778193396 | 20.56° C | 25% | 1006.6 hPa | 0 mm | - | - | - |
| 1778193096 | 20.56° C | 24% | 1006.7 hPa | 0 mm | - | - | - |
| 1778192796 | 20.56° C | 25% | 1006.7 hPa | 0 mm | - | - | - |
| 1778192466 | 20.56° C | 24% | 1006.7 hPa | 0 mm | - | - | - |
| 1778192136 | 20° C | 26% | 1006.7 hPa | 0 mm | - | - | - |
| 1778191806 | 20° C | 26% | 1006.7 hPa | 0 mm | - | - | - |
| 1778191476 | 20° C | 25% | 1006.7 hPa | 0 mm | - | - | - |
| 1778191176 | 20.56° C | 26% | 1006.8 hPa | 0 mm | - | - | - |
| 1778190846 | 20° C | 26% | 1006.8 hPa | 0 mm | - | - | - |
| 1778190546 | 20° C | 24% | 1006.9 hPa | 0 mm | - | - | - |
| 1778190216 | 20.56° C | 25% | 1006.8 hPa | 0 mm | - | - | - |
| 1778189886 | 20.56° C | 25% | 1006.7 hPa | 0 mm | - | - | - |
| 1778189586 | 21.11° C | 25% | 1006.8 hPa | 0 mm | - | - | - |
| 1778189256 | 20.56° C | 26% | 1006.9 hPa | 0 mm | - | - | - |
| 1778188956 | 20.56° C | 26% | 1006.9 hPa | 0 mm | - | - | - |
| 1778188326 | 20.56° C | 26% | 1007 hPa | 0 mm | - | - | - |
| 1778188026 | 20° C | 26% | 1007.1 hPa | 0 mm | - | - | - |
| 1778187726 | 20.56° C | 27% | 1007 hPa | 0 mm | - | - | - |
| 1778187426 | 19.44° C | 28% | 1007.1 hPa | 0 mm | - | - | - |
| 1778187096 | 19.44° C | 28% | 1007 hPa | 0 mm | - | - | - |
| 1778186796 | 19.44° C | 28% | 1007.2 hPa | 0 mm | - | - | - |
| 1778186466 | 20° C | 27% | 1007 hPa | 0 mm | - | - | - |
| 1778186136 | 19.44° C | 27% | 1007.1 hPa | 0 mm | - | - | - |
* Rain latest hour (hover to see other rain measurements)
** Current wind speed in m/s (hover to see current wind gust speed)